Year,Month,Day,Hour,Minute,Value (Times are PST for temperature in C)
2005,07,17,00,00,14.40
2005,07,17,00,01,14.50
2005,07,17,00,02,14.50
2005,07,17,00,03,14.50
2005,07,17,00,04,14.50
2005,07,17,00,05,14.50
2005,07,17,00,06,14.50
2005,07,17,00,07,14.50
2005,07,17,00,08,14.50
2005,07,17,00,09,14.50
2005,07,17,00,10,14.40
2005,07,17,00,11,14.40
2005,07,17,00,12,14.40
2005,07,17,00,13,14.40
2005,07,17,00,14,14.40
2005,07,17,00,15,14.40
2005,07,17,00,16,14.40
2005,07,17,00,17,14.30
2005,07,17,00,18,14.30
2005,07,17,00,19,14.30
2005,07,17,00,20,14.30
2005,07,17,00,21,14.30
2005,07,17,00,22,14.20
2005,07,17,00,23,14.20
2005,07,17,00,24,14.20
2005,07,17,00,25,14.20
2005,07,17,00,26,14.20
2005,07,17,00,27,14.20
2005,07,17,00,28,14.20
2005,07,17,00,29,14.20
2005,07,17,00,30,14.20
2005,07,17,00,31,14.20
2005,07,17,00,32,14.20
2005,07,17,00,33,14.20
2005,07,17,00,34,14.20
2005,07,17,00,35,14.20
2005,07,17,00,36,14.20
2005,07,17,00,37,14.20
2005,07,17,00,38,14.20
2005,07,17,00,39,14.20
2005,07,17,00,40,14.20
2005,07,17,00,41,14.30
2005,07,17,00,42,14.30
2005,07,17,00,43,14.40
2005,07,17,00,44,14.40
2005,07,17,00,45,14.40
2005,07,17,00,46,14.50
2005,07,17,00,47,14.50
2005,07,17,00,48,14.50
2005,07,17,00,49,14.50
2005,07,17,00,50,14.50
2005,07,17,00,51,14.50
2005,07,17,00,52,14.50
2005,07,17,00,53,14.50
2005,07,17,00,54,14.40
2005,07,17,00,55,14.40
2005,07,17,00,56,14.40
2005,07,17,00,57,14.40
2005,07,17,00,58,14.40
2005,07,17,00,59,14.30
2005,07,17,01,00,14.30
2005,07,17,01,01,14.30
2005,07,17,01,02,14.20
2005,07,17,01,03,14.20
2005,07,17,01,04,14.20
2005,07,17,01,05,14.20
2005,07,17,01,06,14.20
2005,07,17,01,07,14.20
2005,07,17,01,08,14.20
2005,07,17,01,09,14.20
2005,07,17,01,10,14.20
2005,07,17,01,11,14.20
2005,07,17,01,12,14.10
2005,07,17,01,13,14.10
2005,07,17,01,14,14.10
2005,07,17,01,15,14.10
2005,07,17,01,16,14.10
2005,07,17,01,17,14.10
2005,07,17,01,18,14.10
2005,07,17,01,19,14.10
2005,07,17,01,20,14.00
2005,07,17,01,21,14.00
2005,07,17,01,22,14.00
2005,07,17,01,23,14.00
2005,07,17,01,24,14.00
2005,07,17,01,25,14.00
2005,07,17,01,26,14.00
2005,07,17,01,27,13.90
2005,07,17,01,28,13.90
2005,07,17,01,29,13.90
2005,07,17,01,30,13.90
2005,07,17,01,31,13.90
2005,07,17,01,32,13.90
2005,07,17,01,33,13.90
2005,07,17,01,34,13.80
2005,07,17,01,35,13.80
2005,07,17,01,36,13.80
2005,07,17,01,37,13.80
2005,07,17,01,38,13.70
2005,07,17,01,39,13.70
2005,07,17,01,40,13.70
2005,07,17,01,41,13.70
2005,07,17,01,42,13.70
2005,07,17,01,43,13.70
2005,07,17,01,44,13.70
2005,07,17,01,45,13.70
2005,07,17,01,46,13.70
2005,07,17,01,47,13.60
2005,07,17,01,48,13.60
2005,07,17,01,49,13.60
2005,07,17,01,50,13.60
2005,07,17,01,51,13.60
2005,07,17,01,52,13.50
2005,07,17,01,53,13.50
2005,07,17,01,54,13.50
2005,07,17,01,55,13.50
2005,07,17,01,56,13.50
2005,07,17,01,57,13.50
2005,07,17,01,58,13.50
2005,07,17,01,59,13.50
2005,07,17,02,00,13.60
2005,07,17,02,01,13.60
2005,07,17,02,02,13.60
2005,07,17,02,03,13.60
2005,07,17,02,04,13.60
2005,07,17,02,05,13.60
2005,07,17,02,06,13.60
2005,07,17,02,07,13.60
2005,07,17,02,08,13.60
2005,07,17,02,09,13.60
2005,07,17,02,10,13.60
2005,07,17,02,11,13.60
2005,07,17,02,12,13.60
2005,07,17,02,13,13.60
2005,07,17,02,14,13.60
2005,07,17,02,15,13.60
2005,07,17,02,16,13.70
2005,07,17,02,17,13.70
2005,07,17,02,18,13.70
2005,07,17,02,19,13.70
2005,07,17,02,20,13.70
2005,07,17,02,21,13.70
2005,07,17,02,22,13.70
2005,07,17,02,23,13.70
2005,07,17,02,24,13.70
2005,07,17,02,25,13.70
2005,07,17,02,26,13.70
2005,07,17,02,27,13.70
2005,07,17,02,28,13.70
2005,07,17,02,29,13.70
2005,07,17,02,30,13.70
2005,07,17,02,31,13.70
2005,07,17,02,32,13.70
2005,07,17,02,33,13.70
2005,07,17,02,34,13.70
2005,07,17,02,35,13.70
2005,07,17,02,36,13.60
2005,07,17,02,37,13.60
2005,07,17,02,38,13.60
2005,07,17,02,39,13.60
2005,07,17,02,40,13.60
2005,07,17,02,41,13.60
2005,07,17,02,42,13.60
2005,07,17,02,43,13.50
2005,07,17,02,44,13.50
2005,07,17,02,45,13.50
2005,07,17,02,46,13.50
2005,07,17,02,47,13.50
2005,07,17,02,48,13.50
2005,07,17,02,49,13.50
2005,07,17,02,50,13.50
2005,07,17,02,51,13.50
2005,07,17,02,52,13.50
2005,07,17,02,53,13.50
2005,07,17,02,54,13.40
2005,07,17,02,55,13.40
2005,07,17,02,56,13.40
2005,07,17,02,57,13.40
2005,07,17,02,58,13.40
2005,07,17,02,59,13.40
2005,07,17,03,00,13.40
2005,07,17,03,01,13.40
2005,07,17,03,02,13.40
2005,07,17,03,03,13.40
2005,07,17,03,04,13.40
2005,07,17,03,05,13.40
2005,07,17,03,06,13.40
2005,07,17,03,07,13.40
2005,07,17,03,08,13.40
2005,07,17,03,09,13.40
2005,07,17,03,10,13.40
2005,07,17,03,11,13.40
2005,07,17,03,12,13.40
2005,07,17,03,13,13.40
2005,07,17,03,14,13.40
2005,07,17,03,15,13.40
2005,07,17,03,16,13.40
2005,07,17,03,17,13.40
2005,07,17,03,18,13.40
2005,07,17,03,19,13.40
2005,07,17,03,20,13.40
2005,07,17,03,21,13.40
2005,07,17,03,22,13.40
2005,07,17,03,23,13.40
2005,07,17,03,24,13.40
2005,07,17,03,25,13.40
2005,07,17,03,26,13.40
2005,07,17,03,27,13.30
2005,07,17,03,28,13.30
2005,07,17,03,29,13.30
2005,07,17,03,30,13.30
2005,07,17,03,31,13.30
2005,07,17,03,32,13.30
2005,07,17,03,33,13.30
2005,07,17,03,34,13.30
2005,07,17,03,35,13.20
2005,07,17,03,36,13.20
2005,07,17,03,37,13.20
2005,07,17,03,38,13.20
2005,07,17,03,39,13.20
2005,07,17,03,40,13.20
2005,07,17,03,41,13.20
2005,07,17,03,42,13.20
2005,07,17,03,43,13.20
2005,07,17,03,44,13.10
2005,07,17,03,45,13.10
2005,07,17,03,46,13.10
2005,07,17,03,47,13.10
2005,07,17,03,48,13.10
2005,07,17,03,49,13.00
2005,07,17,03,50,13.00
2005,07,17,03,51,13.00
2005,07,17,03,52,13.00
2005,07,17,03,53,12.90
2005,07,17,03,54,12.90
2005,07,17,03,55,12.90
2005,07,17,03,56,12.90
2005,07,17,03,57,12.90
2005,07,17,03,58,12.80
2005,07,17,03,59,12.80
2005,07,17,04,00,12.80
2005,07,17,04,01,12.80
2005,07,17,04,02,12.80
2005,07,17,04,03,12.80
2005,07,17,04,04,12.90
2005,07,17,04,05,12.90
2005,07,17,04,06,12.90
2005,07,17,04,07,13.00
2005,07,17,04,08,13.00
2005,07,17,04,09,13.00
2005,07,17,04,10,13.10
2005,07,17,04,11,13.10
2005,07,17,04,12,13.10
2005,07,17,04,13,13.20
2005,07,17,04,14,13.20
2005,07,17,04,15,13.20
2005,07,17,04,16,13.20
2005,07,17,04,17,13.20
2005,07,17,04,18,13.20
2005,07,17,04,19,13.20
2005,07,17,04,20,13.20
2005,07,17,04,21,13.20
2005,07,17,04,22,13.20
2005,07,17,04,23,13.20
2005,07,17,04,24,13.20
2005,07,17,04,25,13.10
2005,07,17,04,26,13.10
2005,07,17,04,27,13.10
2005,07,17,04,28,13.10
2005,07,17,04,29,13.00
2005,07,17,04,30,13.00
2005,07,17,04,31,13.00
2005,07,17,04,32,12.90
2005,07,17,04,33,12.90
2005,07,17,04,34,12.90
2005,07,17,04,35,12.80
2005,07,17,04,36,12.80
2005,07,17,04,37,12.80
2005,07,17,04,38,12.80
2005,07,17,04,39,12.80
2005,07,17,04,40,12.80
2005,07,17,04,41,12.80
2005,07,17,04,42,12.80
2005,07,17,04,43,12.70
2005,07,17,04,44,12.70
2005,07,17,04,45,12.70
2005,07,17,04,46,12.80
2005,07,17,04,47,12.80
2005,07,17,04,48,12.80
2005,07,17,04,49,12.80
2005,07,17,04,50,12.80
2005,07,17,04,51,12.80
2005,07,17,04,52,12.80
2005,07,17,04,53,12.80
2005,07,17,04,54,12.80
2005,07,17,04,55,12.80
2005,07,17,04,56,12.80
2005,07,17,04,57,12.80
2005,07,17,04,58,12.80
2005,07,17,04,59,12.80
2005,07,17,05,00,12.80
2005,07,17,05,01,12.80
2005,07,17,05,02,12.80
2005,07,17,05,03,12.80
2005,07,17,05,04,12.80
2005,07,17,05,05,12.80
2005,07,17,05,06,12.80
2005,07,17,05,07,12.80
2005,07,17,05,08,12.80
2005,07,17,05,09,12.80
2005,07,17,05,10,12.80
2005,07,17,05,11,12.80
2005,07,17,05,12,12.80
2005,07,17,05,13,12.80
2005,07,17,05,14,12.80
2005,07,17,05,15,12.80
2005,07,17,05,16,12.90
2005,07,17,05,17,12.90
2005,07,17,05,18,12.90
2005,07,17,05,19,13.00
2005,07,17,05,20,13.00
2005,07,17,05,21,13.00
2005,07,17,05,22,13.10
2005,07,17,05,23,13.10
2005,07,17,05,24,13.10
2005,07,17,05,25,13.10
2005,07,17,05,26,13.10
2005,07,17,05,27,13.10
2005,07,17,05,28,13.10
2005,07,17,05,29,13.10
2005,07,17,05,30,13.00
2005,07,17,05,31,13.00
2005,07,17,05,32,13.00
2005,07,17,05,33,13.00
2005,07,17,05,34,13.00
2005,07,17,05,35,13.00
2005,07,17,05,36,13.10
2005,07,17,05,37,13.10
2005,07,17,05,38,13.10
2005,07,17,05,39,13.10
2005,07,17,05,40,13.10
2005,07,17,05,41,13.10
2005,07,17,05,42,13.10
2005,07,17,05,43,13.10
2005,07,17,05,44,13.10
2005,07,17,05,45,13.10
2005,07,17,05,46,13.10
2005,07,17,05,47,13.10
2005,07,17,05,48,13.10
2005,07,17,05,49,13.10
2005,07,17,05,50,13.10
2005,07,17,05,51,13.10
2005,07,17,05,52,13.10
2005,07,17,05,53,13.10
2005,07,17,05,54,13.20
2005,07,17,05,55,13.20
2005,07,17,05,56,13.20
2005,07,17,05,57,13.20
2005,07,17,05,58,13.30
2005,07,17,05,59,13.30
2005,07,17,06,00,13.30
2005,07,17,06,01,13.30
2005,07,17,06,02,13.30
2005,07,17,06,03,13.30
2005,07,17,06,04,13.30
2005,07,17,06,05,13.40
2005,07,17,06,06,13.40
2005,07,17,06,07,13.40
2005,07,17,06,08,13.50
2005,07,17,06,09,13.60
2005,07,17,06,10,13.60
2005,07,17,06,11,13.70
2005,07,17,06,12,13.70
2005,07,17,06,13,13.70
2005,07,17,06,14,13.80
2005,07,17,06,15,13.90
2005,07,17,06,16,13.90
2005,07,17,06,17,14.00
2005,07,17,06,18,14.10
2005,07,17,06,19,14.20
2005,07,17,06,20,14.30
2005,07,17,06,21,14.40
2005,07,17,06,22,14.40
2005,07,17,06,23,14.50
2005,07,17,06,24,14.60
2005,07,17,06,25,14.70
2005,07,17,06,26,14.70
2005,07,17,06,27,14.80
2005,07,17,06,28,14.80
2005,07,17,06,29,14.80
2005,07,17,06,30,14.90
2005,07,17,06,31,14.90
2005,07,17,06,32,15.00
2005,07,17,06,33,15.00
2005,07,17,06,34,15.00
2005,07,17,06,35,15.00
2005,07,17,06,36,15.10
2005,07,17,06,37,15.10
2005,07,17,06,38,15.10
2005,07,17,06,39,15.10
2005,07,17,06,40,15.10
2005,07,17,06,41,15.10
2005,07,17,06,42,15.20
2005,07,17,06,43,15.20
2005,07,17,06,44,15.30
2005,07,17,06,45,15.30
2005,07,17,06,46,15.40
2005,07,17,06,47,15.50
2005,07,17,06,48,15.50
2005,07,17,06,49,15.60
2005,07,17,06,50,15.70
2005,07,17,06,51,15.80
2005,07,17,06,52,15.90
2005,07,17,06,53,16.00
2005,07,17,06,54,16.20
2005,07,17,06,55,16.30
2005,07,17,06,56,16.40
2005,07,17,06,57,16.50
2005,07,17,06,58,16.60
2005,07,17,06,59,16.70
2005,07,17,07,00,16.90
2005,07,17,07,01,16.90
2005,07,17,07,02,17.00
2005,07,17,07,03,17.10
2005,07,17,07,04,17.10
2005,07,17,07,05,17.20
2005,07,17,07,06,17.20
2005,07,17,07,07,17.30
2005,07,17,07,08,17.30
2005,07,17,07,09,17.30
2005,07,17,07,10,17.30
2005,07,17,07,11,17.40
2005,07,17,07,12,17.40
2005,07,17,07,13,17.50
2005,07,17,07,14,17.50
2005,07,17,07,15,17.50
2005,07,17,07,16,17.50
2005,07,17,07,17,17.60
2005,07,17,07,18,17.60
2005,07,17,07,19,17.60
2005,07,17,07,20,17.60
2005,07,17,07,21,17.70
2005,07,17,07,22,17.70
2005,07,17,07,23,17.70
2005,07,17,07,24,17.70
2005,07,17,07,25,17.80
2005,07,17,07,26,17.80
2005,07,17,07,27,17.80
2005,07,17,07,28,17.80
2005,07,17,07,29,17.80
2005,07,17,07,30,17.80
2005,07,17,07,31,17.80
2005,07,17,07,32,17.90
2005,07,17,07,33,17.90
2005,07,17,07,34,17.90
2005,07,17,07,35,17.90
2005,07,17,07,36,17.90
2005,07,17,07,37,17.90
2005,07,17,07,38,17.90
2005,07,17,07,39,17.90
2005,07,17,07,40,17.90
2005,07,17,07,41,17.90
2005,07,17,07,42,17.90
2005,07,17,07,43,17.90
2005,07,17,07,44,18.00
2005,07,17,07,45,18.10
2005,07,17,07,46,18.10
2005,07,17,07,47,18.20
2005,07,17,07,48,18.20
2005,07,17,07,49,18.20
2005,07,17,07,50,18.30
2005,07,17,07,51,18.30
2005,07,17,07,52,18.30
2005,07,17,07,53,18.40
2005,07,17,07,54,18.40
2005,07,17,07,55,18.50
2005,07,17,07,56,18.50
2005,07,17,07,57,18.60
2005,07,17,07,58,18.60
2005,07,17,07,59,18.60
2005,07,17,08,00,18.60
2005,07,17,08,01,18.60
2005,07,17,08,02,18.60
2005,07,17,08,03,18.60
2005,07,17,08,04,18.60
2005,07,17,08,05,18.60
2005,07,17,08,06,18.60
2005,07,17,08,07,18.60
2005,07,17,08,08,18.60
2005,07,17,08,09,18.60
2005,07,17,08,10,18.60
2005,07,17,08,11,18.50
2005,07,17,08,12,18.50
2005,07,17,08,13,18.50
2005,07,17,08,14,18.50
2005,07,17,08,15,18.50
2005,07,17,08,16,18.50
2005,07,17,08,17,18.50
2005,07,17,08,18,18.60
2005,07,17,08,19,18.60
2005,07,17,08,20,18.60
2005,07,17,08,21,18.60
2005,07,17,08,22,18.60
2005,07,17,08,23,18.60
2005,07,17,08,24,18.70
2005,07,17,08,25,18.70
2005,07,17,08,26,18.70
2005,07,17,08,27,18.70
2005,07,17,08,28,18.70
2005,07,17,08,29,18.70
2005,07,17,08,30,18.70
2005,07,17,08,31,18.70
2005,07,17,08,32,18.70
2005,07,17,08,33,18.80
2005,07,17,08,34,18.80
2005,07,17,08,35,18.80
2005,07,17,08,36,18.80
2005,07,17,08,37,18.80
2005,07,17,08,38,18.80
2005,07,17,08,39,18.90
2005,07,17,08,40,18.90
2005,07,17,08,41,18.90
2005,07,17,08,42,18.90
2005,07,17,08,43,18.90
2005,07,17,08,44,18.90
2005,07,17,08,45,18.90
2005,07,17,08,46,18.90
2005,07,17,08,47,18.80
2005,07,17,08,48,18.90
2005,07,17,08,49,18.90
2005,07,17,08,50,18.90
2005,07,17,08,51,18.90
2005,07,17,08,52,19.00
2005,07,17,08,53,19.10
2005,07,17,08,54,19.10
2005,07,17,08,55,19.10
2005,07,17,08,56,19.20
2005,07,17,08,57,19.20
2005,07,17,08,58,19.20
2005,07,17,08,59,19.30
2005,07,17,09,00,19.30
2005,07,17,09,01,19.40
2005,07,17,09,02,19.40
2005,07,17,09,03,19.50
2005,07,17,09,04,19.50
2005,07,17,09,05,19.50
2005,07,17,09,06,19.60
2005,07,17,09,07,19.60
2005,07,17,09,08,19.50
2005,07,17,09,09,19.50
2005,07,17,09,10,19.50
2005,07,17,09,11,19.50
2005,07,17,09,12,19.50
2005,07,17,09,13,19.60
2005,07,17,09,14,19.60
2005,07,17,09,15,19.60
2005,07,17,09,16,19.60
2005,07,17,09,17,19.70
2005,07,17,09,18,19.80
2005,07,17,09,19,19.90
2005,07,17,09,20,19.90
2005,07,17,09,21,19.90
2005,07,17,09,22,19.90
2005,07,17,09,23,19.90
2005,07,17,09,24,19.90
2005,07,17,09,25,19.90
2005,07,17,09,26,19.90
2005,07,17,09,27,19.90
2005,07,17,09,28,20.00
2005,07,17,09,29,20.10
2005,07,17,09,30,20.10
2005,07,17,09,31,20.20
2005,07,17,09,32,20.10
2005,07,17,09,33,20.00
2005,07,17,09,34,19.90
2005,07,17,09,35,19.90
2005,07,17,09,36,19.90
2005,07,17,09,37,19.90
2005,07,17,09,38,19.90
2005,07,17,09,39,19.90
2005,07,17,09,40,19.90
2005,07,17,09,41,19.90
2005,07,17,09,42,20.00
2005,07,17,09,43,20.10
2005,07,17,09,44,20.10
2005,07,17,09,45,20.10
2005,07,17,09,46,20.10
2005,07,17,09,47,20.20
2005,07,17,09,48,20.20
2005,07,17,09,49,20.20
2005,07,17,09,50,20.20
2005,07,17,09,51,20.20
2005,07,17,09,52,20.30
2005,07,17,09,53,20.30
2005,07,17,09,54,20.30
2005,07,17,09,55,20.30
2005,07,17,09,56,20.20
2005,07,17,09,57,20.20
2005,07,17,09,58,20.20
2005,07,17,09,59,20.20
2005,07,17,10,00,20.20
2005,07,17,10,01,20.20
2005,07,17,10,02,20.20
2005,07,17,10,03,20.30
2005,07,17,10,04,20.40
2005,07,17,10,05,20.40
2005,07,17,10,06,20.40
2005,07,17,10,07,20.40
2005,07,17,10,08,20.40
2005,07,17,10,09,20.40
2005,07,17,10,10,20.40
2005,07,17,10,11,20.40
2005,07,17,10,12,20.40
2005,07,17,10,13,20.30
2005,07,17,10,14,20.30
2005,07,17,10,15,20.40
2005,07,17,10,16,20.50
2005,07,17,10,17,20.60
2005,07,17,10,18,20.60
2005,07,17,10,19,20.60
2005,07,17,10,20,20.60
2005,07,17,10,21,20.80
2005,07,17,10,22,20.80
2005,07,17,10,23,20.90
2005,07,17,10,24,20.90
2005,07,17,10,25,20.80
2005,07,17,10,26,20.80
2005,07,17,10,27,20.80
2005,07,17,10,28,20.80
2005,07,17,10,29,20.70
2005,07,17,10,30,20.70
2005,07,17,10,31,20.70
2005,07,17,10,32,20.70
2005,07,17,10,33,20.70
2005,07,17,10,34,20.70
2005,07,17,10,35,20.60
2005,07,17,10,36,20.60
2005,07,17,10,37,20.60
2005,07,17,10,38,20.60
2005,07,17,10,39,20.60
2005,07,17,10,40,20.60
2005,07,17,10,41,20.70
2005,07,17,10,42,20.70
2005,07,17,10,43,20.70
2005,07,17,10,44,20.70
2005,07,17,10,45,20.80
2005,07,17,10,46,20.80
2005,07,17,10,47,20.90
2005,07,17,10,48,21.00
2005,07,17,10,49,21.10
2005,07,17,10,50,21.20
2005,07,17,10,51,21.20
2005,07,17,10,52,21.30
2005,07,17,10,53,21.30
2005,07,17,10,54,21.40
2005,07,17,10,55,21.40
2005,07,17,10,56,21.30
2005,07,17,10,57,21.30
2005,07,17,10,58,21.30
2005,07,17,10,59,21.30
2005,07,17,11,00,21.30
2005,07,17,11,01,21.30
2005,07,17,11,02,21.30
2005,07,17,11,03,21.30
2005,07,17,11,04,21.30
2005,07,17,11,05,21.40
2005,07,17,11,06,21.50
2005,07,17,11,07,21.60
2005,07,17,11,08,21.60
2005,07,17,11,09,21.60
2005,07,17,11,10,21.60
2005,07,17,11,11,21.60
2005,07,17,11,12,21.60
2005,07,17,11,13,21.60
2005,07,17,11,14,21.70
2005,07,17,11,15,21.70
2005,07,17,11,16,21.70
2005,07,17,11,17,21.60
2005,07,17,11,18,21.60
2005,07,17,11,19,21.60
2005,07,17,11,20,21.60
2005,07,17,11,21,21.60
2005,07,17,11,22,21.60
2005,07,17,11,23,21.60
2005,07,17,11,24,21.50
2005,07,17,11,25,21.40
2005,07,17,11,26,21.30
2005,07,17,11,27,21.40
2005,07,17,11,28,21.60
2005,07,17,11,29,21.60
2005,07,17,11,30,21.70
2005,07,17,11,31,21.70
2005,07,17,11,32,21.70
2005,07,17,11,33,21.80
2005,07,17,11,34,21.90
2005,07,17,11,35,21.90
2005,07,17,11,36,22.00
2005,07,17,11,37,22.10
2005,07,17,11,38,22.10
2005,07,17,11,39,22.20
2005,07,17,11,40,22.20
2005,07,17,11,41,22.20
2005,07,17,11,42,22.10
2005,07,17,11,43,22.10
2005,07,17,11,44,22.00
2005,07,17,11,45,22.00
2005,07,17,11,46,21.90
2005,07,17,11,47,21.80
2005,07,17,11,48,21.80
2005,07,17,11,49,21.80
2005,07,17,11,50,21.80
2005,07,17,11,51,21.90
2005,07,17,11,52,21.90
2005,07,17,11,53,22.00
2005,07,17,11,54,22.10
2005,07,17,11,55,22.10
2005,07,17,11,56,22.10
2005,07,17,11,57,22.10
2005,07,17,11,58,22.10
2005,07,17,11,59,22.20
2005,07,17,12,00,22.40
2005,07,17,12,01,22.50
2005,07,17,12,02,22.50
2005,07,17,12,03,22.60
2005,07,17,12,04,22.60
2005,07,17,12,05,22.70
2005,07,17,12,06,22.70
2005,07,17,12,07,22.70
2005,07,17,12,08,22.60
2005,07,17,12,09,22.60
2005,07,17,12,10,22.60
2005,07,17,12,11,22.50
2005,07,17,12,12,22.40
2005,07,17,12,13,22.40
2005,07,17,12,14,22.30
2005,07,17,12,15,22.30
2005,07,17,12,16,22.30
2005,07,17,12,17,22.30
2005,07,17,12,18,22.30
2005,07,17,12,19,22.30
2005,07,17,12,20,22.30
2005,07,17,12,21,22.40
2005,07,17,12,22,22.40
2005,07,17,12,23,22.40
2005,07,17,12,24,22.40
2005,07,17,12,25,22.50
2005,07,17,12,26,22.50
2005,07,17,12,27,22.50
2005,07,17,12,28,22.50
2005,07,17,12,29,22.50
2005,07,17,12,30,22.50
2005,07,17,12,31,22.60
2005,07,17,12,32,22.80
2005,07,17,12,33,22.80
2005,07,17,12,34,22.90
2005,07,17,12,35,22.90
2005,07,17,12,36,22.90
2005,07,17,12,37,22.90
2005,07,17,12,38,22.90
2005,07,17,12,39,22.90
2005,07,17,12,40,22.90
2005,07,17,12,41,22.90
2005,07,17,12,42,23.00
2005,07,17,12,43,23.10
2005,07,17,12,44,23.20
2005,07,17,12,45,23.30
2005,07,17,12,46,23.40
2005,07,17,12,47,23.30
2005,07,17,12,48,23.30
2005,07,17,12,49,23.30
2005,07,17,12,50,23.30
2005,07,17,12,51,23.30
2005,07,17,12,52,23.30
2005,07,17,12,53,23.30
2005,07,17,12,54,23.30
2005,07,17,12,55,23.30
2005,07,17,12,56,23.40
2005,07,17,12,57,23.40
2005,07,17,12,58,23.40
2005,07,17,12,59,23.40
2005,07,17,13,00,23.50
2005,07,17,13,01,23.70
2005,07,17,13,02,23.70
2005,07,17,13,03,23.70
2005,07,17,13,04,23.70
2005,07,17,13,05,23.70
2005,07,17,13,06,23.70
2005,07,17,13,07,23.70
2005,07,17,13,08,23.70
2005,07,17,13,09,23.70
2005,07,17,13,10,23.70
2005,07,17,13,11,23.70
2005,07,17,13,12,23.60
2005,07,17,13,13,23.50
2005,07,17,13,14,23.40
2005,07,17,13,15,23.40
2005,07,17,13,16,23.50
2005,07,17,13,17,23.60
2005,07,17,13,18,23.70
2005,07,17,13,19,23.70
2005,07,17,13,20,23.70
2005,07,17,13,21,23.70
2005,07,17,13,22,23.70
2005,07,17,13,23,23.70
2005,07,17,13,24,23.60
2005,07,17,13,25,23.60
2005,07,17,13,26,23.60
2005,07,17,13,27,23.60
2005,07,17,13,28,23.70
2005,07,17,13,29,23.70
2005,07,17,13,30,23.80
2005,07,17,13,31,23.90
2005,07,17,13,32,23.90
2005,07,17,13,33,23.90
2005,07,17,13,34,23.90
2005,07,17,13,35,23.90
2005,07,17,13,36,23.90
2005,07,17,13,37,23.90
2005,07,17,13,38,23.90
2005,07,17,13,39,24.00
2005,07,17,13,40,24.10
2005,07,17,13,41,24.20
2005,07,17,13,42,24.20
2005,07,17,13,43,24.20
2005,07,17,13,44,24.20
2005,07,17,13,45,24.30
2005,07,17,13,46,24.30
2005,07,17,13,47,24.40
2005,07,17,13,48,24.50
2005,07,17,13,49,24.60
2005,07,17,13,50,24.70
2005,07,17,13,51,24.80
2005,07,17,13,52,24.80
2005,07,17,13,53,24.90
2005,07,17,13,54,24.80
2005,07,17,13,55,24.80
2005,07,17,13,56,24.70
2005,07,17,13,57,24.70
2005,07,17,13,58,24.70
2005,07,17,13,59,24.80
2005,07,17,14,00,24.80
2005,07,17,14,01,24.80
2005,07,17,14,02,24.80
2005,07,17,14,03,24.80
2005,07,17,14,04,24.80
2005,07,17,14,05,24.80
2005,07,17,14,06,24.90
2005,07,17,14,07,24.90
2005,07,17,14,08,25.00
2005,07,17,14,09,25.20
2005,07,17,14,10,25.30
2005,07,17,14,11,25.40
2005,07,17,14,12,25.50
2005,07,17,14,13,25.50
2005,07,17,14,14,25.50
2005,07,17,14,15,25.50
2005,07,17,14,16,25.50
2005,07,17,14,17,25.60
2005,07,17,14,18,25.60
2005,07,17,14,19,25.60
2005,07,17,14,20,25.60
2005,07,17,14,21,25.60
2005,07,17,14,22,25.70
2005,07,17,14,23,25.80
2005,07,17,14,24,25.80
2005,07,17,14,25,25.90
2005,07,17,14,26,25.90
2005,07,17,14,27,25.90
2005,07,17,14,28,25.90
2005,07,17,14,29,25.80
2005,07,17,14,30,25.80
2005,07,17,14,31,25.80
2005,07,17,14,32,25.80
2005,07,17,14,33,25.70
2005,07,17,14,34,25.70
2005,07,17,14,35,25.80
2005,07,17,14,36,25.80
2005,07,17,14,37,25.90
2005,07,17,14,38,26.00
2005,07,17,14,39,26.00
2005,07,17,14,40,25.90
2005,07,17,14,41,25.90
2005,07,17,14,42,25.90
2005,07,17,14,43,25.90
2005,07,17,14,44,25.80
2005,07,17,14,45,25.80
2005,07,17,14,46,25.80
2005,07,17,14,47,25.80
2005,07,17,14,48,25.90
2005,07,17,14,49,25.90
2005,07,17,14,50,25.90
2005,07,17,14,51,25.90
2005,07,17,14,52,25.90
2005,07,17,14,53,25.80
2005,07,17,14,54,25.80
2005,07,17,14,55,25.80
2005,07,17,14,56,25.90
2005,07,17,14,57,25.90
2005,07,17,14,58,25.80
2005,07,17,14,59,25.70
2005,07,17,15,00,25.70
2005,07,17,15,01,25.80
2005,07,17,15,02,25.80
2005,07,17,15,03,25.90
2005,07,17,15,04,25.90
2005,07,17,15,05,25.90
2005,07,17,15,06,25.90
2005,07,17,15,07,25.90
2005,07,17,15,08,25.90
2005,07,17,15,09,25.90
2005,07,17,15,10,25.90
2005,07,17,15,11,26.00
2005,07,17,15,12,25.90
2005,07,17,15,13,25.90
2005,07,17,15,14,25.90
2005,07,17,15,15,25.90
2005,07,17,15,16,25.90
2005,07,17,15,17,26.00
2005,07,17,15,18,26.10
2005,07,17,15,19,26.20
2005,07,17,15,20,26.30
2005,07,17,15,21,26.40
2005,07,17,15,22,26.40
2005,07,17,15,23,26.40
2005,07,17,15,24,26.30
2005,07,17,15,25,26.30
2005,07,17,15,26,26.30
2005,07,17,15,27,26.30
2005,07,17,15,28,26.40
2005,07,17,15,29,26.40
2005,07,17,15,30,26.40
2005,07,17,15,31,26.30
2005,07,17,15,32,26.20
2005,07,17,15,33,26.10
2005,07,17,15,34,26.10
2005,07,17,15,35,26.10
2005,07,17,15,36,26.20
2005,07,17,15,37,26.30
2005,07,17,15,38,26.40
2005,07,17,15,39,26.50
2005,07,17,15,40,26.60
2005,07,17,15,41,26.60
2005,07,17,15,42,26.60
2005,07,17,15,43,26.60
2005,07,17,15,44,26.70
2005,07,17,15,45,26.70
2005,07,17,15,46,26.70
2005,07,17,15,47,26.80
2005,07,17,15,48,26.80
2005,07,17,15,49,26.90
2005,07,17,15,50,26.90
2005,07,17,15,51,27.00
2005,07,17,15,52,27.10
2005,07,17,15,53,27.00
2005,07,17,15,54,26.80
2005,07,17,15,55,26.80
2005,07,17,15,56,26.70
2005,07,17,15,57,26.70
2005,07,17,15,58,26.70
2005,07,17,15,59,26.70
2005,07,17,16,00,26.70
2005,07,17,16,01,26.70
2005,07,17,16,02,26.70
2005,07,17,16,03,26.80
2005,07,17,16,04,26.80
2005,07,17,16,05,26.90
2005,07,17,16,06,27.00
2005,07,17,16,07,27.10
2005,07,17,16,08,27.10
2005,07,17,16,09,27.10
2005,07,17,16,10,27.00
2005,07,17,16,11,26.90
2005,07,17,16,12,26.80
2005,07,17,16,13,26.80
2005,07,17,16,14,26.80
2005,07,17,16,15,26.80
2005,07,17,16,16,26.80
2005,07,17,16,17,26.80
2005,07,17,16,18,26.80
2005,07,17,16,19,26.70
2005,07,17,16,20,26.60
2005,07,17,16,21,26.50
2005,07,17,16,22,26.40
2005,07,17,16,23,26.40
2005,07,17,16,24,26.40
2005,07,17,16,25,26.40
2005,07,17,16,26,26.50
2005,07,17,16,27,26.60
2005,07,17,16,28,26.50
2005,07,17,16,29,26.40
2005,07,17,16,30,26.20
2005,07,17,16,31,26.20
2005,07,17,16,32,26.20
2005,07,17,16,33,26.30
2005,07,17,16,34,26.40
2005,07,17,16,35,26.60
2005,07,17,16,36,26.60
2005,07,17,16,37,26.70
2005,07,17,16,38,26.80
2005,07,17,16,39,26.80
2005,07,17,16,40,26.80
2005,07,17,16,41,26.80
2005,07,17,16,42,26.80
2005,07,17,16,43,26.70
2005,07,17,16,44,26.70
2005,07,17,16,45,26.70
2005,07,17,16,46,26.70
2005,07,17,16,47,26.70
2005,07,17,16,48,26.70
2005,07,17,16,49,26.70
2005,07,17,16,50,26.80
2005,07,17,16,51,26.80
2005,07,17,16,52,26.80
2005,07,17,16,53,26.70
2005,07,17,16,54,26.60
2005,07,17,16,55,26.50
2005,07,17,16,56,26.40
2005,07,17,16,57,26.30
2005,07,17,16,58,26.30
2005,07,17,16,59,26.40
2005,07,17,17,00,26.50
2005,07,17,17,01,26.60
2005,07,17,17,02,26.60
2005,07,17,17,03,26.60
2005,07,17,17,04,26.70
2005,07,17,17,05,26.70
2005,07,17,17,06,26.70
2005,07,17,17,07,26.80
2005,07,17,17,08,26.80
2005,07,17,17,09,26.80
2005,07,17,17,10,26.70
2005,07,17,17,11,26.70
2005,07,17,17,12,26.60
2005,07,17,17,13,26.50
2005,07,17,17,14,26.40
2005,07,17,17,15,26.30
2005,07,17,17,16,26.30
2005,07,17,17,17,26.20
2005,07,17,17,18,26.20
2005,07,17,17,19,26.20